Time,TemperatureF,DewpointF,PressureIn,WindDirection,WindDirectionDegrees,WindSpeedMPH,WindSpeedGustMPH,Humidity,HourlyPrecipIn,Conditions,Clouds,dailyrainin,SoftwareType,DateUTC
2013-08-20 00:00:00,66.4,58.6,30.02,South,180,0.0,0.0,76,0.00,,,0.00,meteohub,2013-08-20 05:00:00,
2013-08-20 00:05:00,66.2,58.1,30.02,South,180,0.0,0.0,75,0.00,,,0.00,meteohub,2013-08-20 05:05:00,
2013-08-20 00:10:00,66.2,58.8,30.02,South,180,0.0,0.0,77,0.00,,,0.00,meteohub,2013-08-20 05:10:00,
2013-08-20 00:15:00,66.0,59.0,30.02,WSW,248,0.0,0.0,78,0.00,,,0.00,meteohub,2013-08-20 05:15:00,
2013-08-20 00:20:00,66.0,59.0,30.02,SW,225,0.0,0.0,78,0.00,,,0.00,meteohub,2013-08-20 05:20:00,
2013-08-20 00:25:00,65.8,58.8,30.02,West,270,0.0,0.0,78,0.00,,,0.00,meteohub,2013-08-20 05:25:00,
2013-08-20 00:30:00,65.8,58.8,30.02,West,270,0.0,0.0,78,0.00,,,0.00,meteohub,2013-08-20 05:30:00,
2013-08-20 00:35:00,65.8,59.2,30.02,West,270,0.0,0.0,79,0.00,,,0.00,meteohub,2013-08-20 05:35:00,
2013-08-20 00:40:00,65.7,59.0,30.02,West,270,0.0,0.0,79,0.00,,,0.00,meteohub,2013-08-20 05:40:00,
2013-08-20 00:45:00,65.5,59.2,30.02,West,270,0.0,0.0,80,0.00,,,0.00,meteohub,2013-08-20 05:45:00,
2013-08-20 00:50:00,65.5,59.2,30.02,WNW,292,0.0,0.0,80,0.00,,,0.00,meteohub,2013-08-20 05:50:00,
2013-08-20 00:55:00,65.5,59.5,30.02,WNW,292,0.0,0.0,81,0.00,,,0.00,meteohub,2013-08-20 05:55:00,
2013-08-20 01:00:00,65.3,59.4,30.02,SW,225,0.0,0.0,81,0.00,,,0.00,meteohub,2013-08-20 06:00:00,
2013-08-20 01:05:00,65.1,58.8,30.02,SW,225,0.0,0.0,80,0.00,,,0.00,meteohub,2013-08-20 06:05:00,
2013-08-20 01:10:00,65.1,59.2,30.02,SW,225,0.0,0.0,81,0.00,,,0.00,meteohub,2013-08-20 06:10:00,
2013-08-20 01:15:00,64.9,58.6,30.02,SSE,158,0.0,0.0,80,0.00,,,0.00,meteohub,2013-08-20 06:15:00,
2013-08-20 01:20:00,64.9,59.0,30.02,SSE,158,0.0,0.0,81,0.00,,,0.00,meteohub,2013-08-20 06:20:00,
2013-08-20 01:26:00,64.8,58.8,30.02,WSW,248,0.0,0.0,81,0.00,,,0.00,meteohub,2013-08-20 06:26:00,
2013-08-20 01:31:00,64.8,59.2,30.02,WSW,248,0.0,0.0,82,0.00,,,0.00,meteohub,2013-08-20 06:31:00,
2013-08-20 01:36:00,64.8,59.2,30.02,WNW,292,0.0,0.0,82,0.00,,,0.00,meteohub,2013-08-20 06:36:00,
2013-08-20 01:41:00,64.6,59.0,30.02,WNW,292,0.0,0.0,82,0.00,,,0.00,meteohub,2013-08-20 06:41:00,
2013-08-20 01:46:00,64.6,59.0,30.02,WNW,292,0.0,0.0,82,0.00,,,0.00,meteohub,2013-08-20 06:46:00,
2013-08-20 01:51:00,64.6,59.4,30.02,WNW,292,0.0,0.0,83,0.00,,,0.00,meteohub,2013-08-20 06:51:00,
2013-08-20 01:56:00,64.4,58.8,30.02,NE,45,0.0,0.0,82,0.00,,,0.00,meteohub,2013-08-20 06:56:00,
2013-08-20 02:01:00,64.4,58.8,30.02,NE,45,0.0,0.0,82,0.00,,,0.00,meteohub,2013-08-20 07:01:00,
2013-08-20 02:06:00,64.4,59.2,30.02,NE,45,0.0,0.0,83,0.00,,,0.00,meteohub,2013-08-20 07:06:00,
2013-08-20 02:11:00,64.4,59.2,30.02,NE,45,0.0,0.0,83,0.00,,,0.00,meteohub,2013-08-20 07:11:00,
2013-08-20 02:16:00,64.2,59.4,30.02,NE,45,0.0,0.0,84,0.00,,,0.00,meteohub,2013-08-20 07:16:00,
2013-08-20 02:21:00,64.2,59.4,30.02,NE,45,0.0,0.0,84,0.00,,,0.00,meteohub,2013-08-20 07:21:00,
2013-08-20 02:26:00,64.2,59.4,30.02,NE,45,0.0,0.0,84,0.00,,,0.00,meteohub,2013-08-20 07:26:00,
2013-08-20 02:31:00,64.0,59.2,30.02,North,0,0.0,0.0,84,0.00,,,0.00,meteohub,2013-08-20 07:31:00,
2013-08-20 02:36:00,64.0,59.2,30.02,NE,45,0.0,0.0,84,0.00,,,0.00,meteohub,2013-08-20 07:36:00,
2013-08-20 02:41:00,63.9,59.0,30.02,NE,45,0.0,0.0,84,0.00,,,0.00,meteohub,2013-08-20 07:41:00,
2013-08-20 02:46:00,63.9,59.0,30.02,NE,45,0.0,0.0,84,0.00,,,0.00,meteohub,2013-08-20 07:46:00,
2013-08-20 02:51:00,63.9,59.0,30.02,NE,45,0.0,0.0,84,0.00,,,0.00,meteohub,2013-08-20 07:51:00,
2013-08-20 02:56:00,63.7,59.0,30.02,NE,45,0.0,0.0,85,0.00,,,0.00,meteohub,2013-08-20 07:56:00,
2013-08-20 03:01:00,63.7,59.0,30.02,NE,45,0.0,0.0,85,0.00,,,0.00,meteohub,2013-08-20 08:01:00,
2013-08-20 03:07:00,63.5,59.0,30.02,NE,45,0.0,0.0,85,0.00,,,0.00,meteohub,2013-08-20 08:07:00,
2013-08-20 03:12:00,63.5,59.0,30.02,NE,45,0.0,0.0,85,0.00,,,0.00,meteohub,2013-08-20 08:12:00,
2013-08-20 03:17:00,63.5,59.0,30.02,NE,45,0.0,0.0,85,0.00,,,0.00,meteohub,2013-08-20 08:17:00,
2013-08-20 03:22:00,63.3,58.8,30.02,SSE,158,0.0,0.0,85,0.00,,,0.00,meteohub,2013-08-20 08:22:00,
2013-08-20 03:27:00,63.1,58.6,30.02,SE,135,0.0,0.0,85,0.00,,,0.00,meteohub,2013-08-20 08:27:00,
2013-08-20 03:32:00,63.1,58.8,30.02,SE,135,0.0,0.0,86,0.00,,,0.00,meteohub,2013-08-20 08:32:00,
2013-08-20 03:37:00,63.1,58.6,30.05,SE,135,0.0,0.0,85,0.00,,,0.00,meteohub,2013-08-20 08:37:00,
2013-08-20 03:42:00,63.0,58.5,30.05,South,180,0.0,0.0,85,0.00,,,0.00,meteohub,2013-08-20 08:42:00,
2013-08-20 03:47:00,63.0,58.5,30.05,South,180,0.0,0.0,85,0.00,,,0.00,meteohub,2013-08-20 08:47:00,
2013-08-20 03:52:00,63.0,58.6,30.05,NE,45,0.0,0.0,86,0.00,,,0.00,meteohub,2013-08-20 08:52:00,
2013-08-20 03:57:00,62.8,58.5,30.02,WNW,292,0.0,0.0,86,0.00,,,0.00,meteohub,2013-08-20 08:57:00,
2013-08-20 04:02:00,62.8,58.5,30.02,NW,315,0.0,0.0,86,0.00,,,0.00,meteohub,2013-08-20 09:02:00,
2013-08-20 04:07:00,62.8,58.5,30.02,West,270,0.0,0.0,86,0.00,,,0.00,meteohub,2013-08-20 09:07:00,
2013-08-20 04:12:00,62.6,58.3,30.02,West,270,0.0,0.0,86,0.00,,,0.00,meteohub,2013-08-20 09:12:00,
2013-08-20 04:17:00,62.6,58.3,30.02,West,270,0.0,0.0,86,0.00,,,0.00,meteohub,2013-08-20 09:17:00,
2013-08-20 04:22:00,62.6,58.3,30.02,NNE,22,0.0,0.0,86,0.00,,,0.00,meteohub,2013-08-20 09:22:00,
2013-08-20 04:27:00,62.6,58.3,30.02,WNW,292,0.0,0.0,86,0.00,,,0.00,meteohub,2013-08-20 09:27:00,
2013-08-20 04:32:00,62.4,58.5,30.02,WNW,292,0.0,0.0,87,0.00,,,0.00,meteohub,2013-08-20 09:32:00,
2013-08-20 04:37:00,62.2,57.9,30.02,SW,225,0.0,0.0,86,0.00,,,0.00,meteohub,2013-08-20 09:37:00,
2013-08-20 04:42:00,62.2,58.3,30.02,SW,225,0.0,0.0,87,0.00,,,0.00,meteohub,2013-08-20 09:42:00,
2013-08-20 04:47:00,62.1,58.1,30.02,SW,225,0.0,0.0,87,0.00,,,0.00,meteohub,2013-08-20 09:47:00,
2013-08-20 04:52:00,61.9,57.9,30.05,SW,225,0.0,0.0,87,0.00,,,0.00,meteohub,2013-08-20 09:52:00,
2013-08-20 04:57:00,61.9,57.9,30.05,SW,225,0.0,0.0,87,0.00,,,0.00,meteohub,2013-08-20 09:57:00,
2013-08-20 05:02:00,61.9,58.3,30.05,SW,225,0.0,0.0,88,0.00,,,0.00,meteohub,2013-08-20 10:02:00,
2013-08-20 05:07:00,62.1,58.5,30.05,NW,315,0.0,0.0,88,0.00,,,0.00,meteohub,2013-08-20 10:07:00,
2013-08-20 05:12:00,62.1,58.5,30.05,NW,315,0.0,0.0,88,0.00,,,0.00,meteohub,2013-08-20 10:12:00,
2013-08-20 05:17:00,62.1,58.5,30.05,NW,315,0.0,0.0,88,0.00,,,0.00,meteohub,2013-08-20 10:17:00,
2013-08-20 05:22:00,61.9,58.3,30.05,NW,315,0.0,0.0,88,0.00,,,0.00,meteohub,2013-08-20 10:22:00,
2013-08-20 05:27:00,61.9,58.3,30.02,NW,315,0.0,0.0,88,0.00,,,0.00,meteohub,2013-08-20 10:27:00,
2013-08-20 05:32:00,61.9,58.3,30.02,NW,315,0.0,0.0,88,0.00,,,0.00,meteohub,2013-08-20 10:32:00,
2013-08-20 05:37:00,61.9,58.6,30.02,NW,315,0.0,0.0,89,0.00,,,0.00,meteohub,2013-08-20 10:37:00,
2013-08-20 05:42:00,61.9,58.6,30.05,NW,315,0.0,0.0,89,0.00,,,0.00,meteohub,2013-08-20 10:42:00,
2013-08-20 05:47:00,61.9,58.6,30.05,NW,315,0.0,0.0,89,0.00,,,0.00,meteohub,2013-08-20 10:47:00,
2013-08-20 05:52:00,61.9,58.6,30.05,NW,315,0.0,0.0,89,0.00,,,0.00,meteohub,2013-08-20 10:52:00,
2013-08-20 05:57:00,61.9,58.6,30.05,NW,315,0.0,0.0,89,0.00,,,0.00,meteohub,2013-08-20 10:57:00,
2013-08-20 06:02:00,61.9,58.6,30.05,NW,315,0.0,0.0,89,0.00,,,0.00,meteohub,2013-08-20 11:02:00,
2013-08-20 06:07:00,61.9,58.6,30.05,NW,315,0.0,0.0,89,0.00,,,0.00,meteohub,2013-08-20 11:07:00,
2013-08-20 06:12:00,62.1,58.8,30.05,NW,315,0.0,0.0,89,0.00,,,0.00,meteohub,2013-08-20 11:12:00,
2013-08-20 06:17:00,62.1,59.2,30.05,NW,315,0.0,0.0,90,0.00,,,0.00,meteohub,2013-08-20 11:17:00,
2013-08-20 06:22:00,62.2,59.4,30.05,NW,315,0.0,0.0,90,0.00,,,0.00,meteohub,2013-08-20 11:22:00,
2013-08-20 06:27:00,62.4,59.4,30.05,NW,315,0.0,0.0,90,0.00,,,0.00,meteohub,2013-08-20 11:27:00,
2013-08-20 06:32:00,62.6,59.5,30.05,NW,315,0.0,0.0,90,0.00,,,0.00,meteohub,2013-08-20 11:32:00,
2013-08-20 06:37:00,62.6,59.5,30.05,SW,225,0.0,0.0,90,0.00,,,0.00,meteohub,2013-08-20 11:37:00,
2013-08-20 06:42:00,62.8,59.7,30.05,SW,225,0.0,0.0,90,0.00,,,0.00,meteohub,2013-08-20 11:42:00,
2013-08-20 06:47:00,63.0,59.9,30.05,SW,225,0.0,0.0,90,0.00,,,0.00,meteohub,2013-08-20 11:47:00,
2013-08-20 06:52:00,63.0,59.9,30.08,SW,225,0.0,0.0,90,0.00,,,0.00,meteohub,2013-08-20 11:52:00,
2013-08-20 06:57:00,63.3,60.3,30.08,SW,225,0.0,0.0,90,0.00,,,0.00,meteohub,2013-08-20 11:57:00,
2013-08-20 07:02:00,63.5,60.8,30.08,SW,225,0.0,0.0,91,0.00,,,0.00,meteohub,2013-08-20 12:02:00,
2013-08-20 07:07:00,63.9,61.2,30.08,SW,225,0.0,0.0,91,0.00,,,0.00,meteohub,2013-08-20 12:07:00,
2013-08-20 07:12:00,64.2,61.5,30.08,SW,225,0.0,0.0,91,0.00,,,0.00,meteohub,2013-08-20 12:12:00,
2013-08-20 07:17:00,64.4,61.7,30.08,SW,225,0.0,0.0,91,0.00,,,0.00,meteohub,2013-08-20 12:17:00,
2013-08-20 07:22:00,64.8,62.1,30.08,SW,225,0.0,0.0,91,0.00,,,0.00,meteohub,2013-08-20 12:22:00,
2013-08-20 07:27:00,65.1,62.4,30.11,SW,225,0.0,0.0,91,0.00,,,0.00,meteohub,2013-08-20 12:27:00,
2013-08-20 07:32:00,65.5,62.8,30.11,ESE,112,0.0,0.0,91,0.00,,,0.00,meteohub,2013-08-20 12:32:00,
2013-08-20 07:37:00,65.7,63.0,30.08,South,180,0.0,0.0,91,0.00,,,0.00,meteohub,2013-08-20 12:37:00,
2013-08-20 07:42:00,66.0,63.3,30.08,South,180,1.0,0.0,91,0.00,,,0.00,meteohub,2013-08-20 12:42:00,
2013-08-20 07:47:00,66.2,63.5,30.08,South,180,0.0,1.0,91,0.00,,,0.00,meteohub,2013-08-20 12:47:00,
2013-08-20 07:52:00,66.6,63.9,30.08,South,180,0.0,1.0,91,0.00,,,0.00,meteohub,2013-08-20 12:52:00,
2013-08-20 07:57:00,66.9,64.2,30.11,South,180,0.0,1.0,91,0.00,,,0.00,meteohub,2013-08-20 12:57:00,
2013-08-20 08:02:00,67.3,64.6,30.11,South,180,0.0,1.0,91,0.00,,,0.00,meteohub,2013-08-20 13:02:00,
2013-08-20 08:07:00,67.6,64.9,30.11,SSW,202,0.0,1.0,91,0.00,,,0.00,meteohub,2013-08-20 13:07:00,
2013-08-20 08:12:00,68.0,64.9,30.14,South,180,0.0,1.0,90,0.00,,,0.00,meteohub,2013-08-20 13:12:00,
2013-08-20 08:17:00,68.4,65.3,30.14,SSW,202,0.0,1.0,90,0.00,,,0.00,meteohub,2013-08-20 13:17:00,
2013-08-20 08:22:00,68.7,65.7,30.11,South,180,0.0,0.0,90,0.00,,,0.00,meteohub,2013-08-20 13:22:00,
2013-08-20 08:27:00,69.3,65.8,30.11,South,180,0.0,0.0,89,0.00,,,0.00,meteohub,2013-08-20 13:27:00,
2013-08-20 08:32:00,69.6,66.2,30.11,SSW,202,0.0,1.0,89,0.00,,,0.00,meteohub,2013-08-20 13:32:00,
2013-08-20 08:37:00,70.0,66.2,30.11,SSW,202,0.0,2.0,88,0.00,,,0.00,meteohub,2013-08-20 13:37:00,
2013-08-20 08:42:00,70.5,66.7,30.11,South,180,0.0,2.0,88,0.00,,,0.00,meteohub,2013-08-20 13:42:00,
2013-08-20 08:47:00,71.1,66.9,30.11,SSW,202,0.0,1.0,87,0.00,,,0.00,meteohub,2013-08-20 13:47:00,
2013-08-20 08:52:00,71.6,67.1,30.11,SSE,158,0.0,1.0,86,0.00,,,0.00,meteohub,2013-08-20 13:52:00,
2013-08-20 08:57:00,72.0,67.5,30.11,West,270,0.0,0.0,86,0.00,,,0.00,meteohub,2013-08-20 13:57:00,
2013-08-20 09:02:00,72.7,67.6,30.11,South,180,0.0,0.0,84,0.00,,,0.00,meteohub,2013-08-20 14:02:00,
2013-08-20 09:07:00,73.2,67.8,30.11,South,180,0.0,0.0,83,0.00,,,0.00,meteohub,2013-08-20 14:07:00,
2013-08-20 09:12:00,73.9,67.8,30.11,SSW,202,0.0,0.0,81,0.00,,,0.00,meteohub,2013-08-20 14:12:00,
2013-08-20 09:17:00,74.1,67.6,30.11,WSW,248,1.0,0.0,80,0.00,,,0.00,meteohub,2013-08-20 14:17:00,
2013-08-20 09:22:00,75.0,68.4,30.08,WSW,248,1.0,2.0,80,0.00,,,0.00,meteohub,2013-08-20 14:22:00,
2013-08-20 09:27:00,75.4,68.0,30.08,South,180,0.0,2.0,78,0.00,,,0.00,meteohub,2013-08-20 14:27:00,
2013-08-20 09:32:00,75.7,68.0,30.08,SSW,202,2.0,2.0,77,0.00,,,0.00,meteohub,2013-08-20 14:32:00,
2013-08-20 09:37:00,76.3,68.5,30.08,SW,225,2.0,3.0,77,0.00,,,0.00,meteohub,2013-08-20 14:37:00,
2013-08-20 09:42:00,76.5,66.7,30.11,South,180,1.0,3.0,72,0.00,,,0.00,meteohub,2013-08-20 14:42:00,
2013-08-20 09:47:00,76.8,67.1,30.11,SSW,202,0.0,3.0,72,0.00,,,0.00,meteohub,2013-08-20 14:47:00,
2013-08-20 09:52:00,77.2,67.5,30.08,South,180,0.0,4.0,72,0.00,,,0.00,meteohub,2013-08-20 14:52:00,
2013-08-20 09:57:00,77.7,68.0,30.08,South,180,0.0,4.0,72,0.00,,,0.00,meteohub,2013-08-20 14:57:00,
2013-08-20 10:02:00,78.1,67.5,30.08,South,180,2.0,4.0,70,0.00,,,0.00,meteohub,2013-08-20 15:02:00,
2013-08-20 10:07:00,78.3,67.6,30.08,SW,225,0.0,3.0,70,0.00,,,0.00,meteohub,2013-08-20 15:07:00,
2013-08-20 10:12:00,78.6,67.1,30.08,SSW,202,1.0,3.0,68,0.00,,,0.00,meteohub,2013-08-20 15:12:00,
2013-08-20 10:17:00,79.2,66.7,30.08,SW,225,1.0,3.0,66,0.00,,,0.00,meteohub,2013-08-20 15:17:00,
2013-08-20 10:22:00,79.5,66.7,30.11,SSE,158,0.0,4.0,65,0.00,,,0.00,meteohub,2013-08-20 15:22:00,
2013-08-20 10:27:00,79.7,65.5,30.11,South,180,0.0,4.0,62,0.00,,,0.00,meteohub,2013-08-20 15:27:00,
2013-08-20 10:32:00,80.1,65.5,30.11,ESE,112,3.0,4.0,61,0.00,,,0.00,meteohub,2013-08-20 15:32:00,
2013-08-20 10:37:00,80.2,65.1,30.08,ESE,112,0.0,3.0,60,0.00,,,0.00,meteohub,2013-08-20 15:37:00,
2013-08-20 10:42:00,80.6,64.9,30.08,SSW,202,2.0,3.0,59,0.00,,,0.00,meteohub,2013-08-20 15:42:00,
2013-08-20 10:47:00,81.0,63.9,30.08,SSW,202,0.0,3.0,56,0.00,,,0.00,meteohub,2013-08-20 15:47:00,
2013-08-20 10:52:00,81.3,64.0,30.08,SSW,202,1.0,3.0,56,0.00,,,0.00,meteohub,2013-08-20 15:52:00,
2013-08-20 10:58:00,81.9,63.0,30.08,SW,225,4.0,4.0,53,0.00,,,0.00,meteohub,2013-08-20 15:58:00,
2013-08-20 11:03:00,81.7,60.1,30.08,SE,135,0.0,5.0,48,0.00,,,0.00,meteohub,2013-08-20 16:03:00,
2013-08-20 11:08:00,80.8,61.0,30.11,South,180,1.0,5.0,51,0.00,,,0.00,meteohub,2013-08-20 16:08:00,
2013-08-20 11:13:00,81.1,61.3,30.11,SSW,202,3.0,5.0,51,0.00,,,0.00,meteohub,2013-08-20 16:13:00,
2013-08-20 11:18:00,81.7,61.9,30.11,South,180,2.0,4.0,51,0.00,,,0.00,meteohub,2013-08-20 16:18:00,
2013-08-20 11:23:00,81.5,61.0,30.11,South,180,0.0,4.0,50,0.00,,,0.00,meteohub,2013-08-20 16:23:00,
2013-08-20 11:28:00,81.0,61.2,30.11,SSW,202,2.0,4.0,51,0.00,,,0.00,meteohub,2013-08-20 16:28:00,
2013-08-20 11:33:00,81.9,63.0,30.11,South,180,1.0,3.0,53,0.00,,,0.00,meteohub,2013-08-20 16:33:00,
2013-08-20 11:38:00,82.4,63.0,30.11,South,180,3.0,3.0,52,0.00,,,0.00,meteohub,2013-08-20 16:38:00,
2013-08-20 11:44:00,82.8,60.4,30.11,SSW,202,0.0,3.0,47,0.00,,,0.00,meteohub,2013-08-20 16:44:00,
2013-08-20 11:49:00,82.6,61.0,30.11,East,90,1.0,3.0,48,0.00,,,0.00,meteohub,2013-08-20 16:49:00,
2013-08-20 11:54:00,83.1,62.1,30.11,South,180,1.0,3.0,49,0.00,,,0.00,meteohub,2013-08-20 16:54:00,
2013-08-20 11:59:00,84.0,62.8,30.11,SSW,202,1.0,3.0,49,0.00,,,0.00,meteohub,2013-08-20 16:59:00,
2013-08-20 12:04:00,84.6,62.8,30.11,SSW,202,1.0,4.0,48,0.00,,,0.00,meteohub,2013-08-20 17:04:00,
2013-08-20 12:09:00,84.0,61.7,30.11,South,180,0.0,4.0,47,0.00,,,0.00,meteohub,2013-08-20 17:09:00,
2013-08-20 12:14:00,84.0,59.7,30.11,WSW,248,0.0,4.0,44,0.00,,,0.00,meteohub,2013-08-20 17:14:00,
2013-08-20 12:19:00,83.7,59.4,30.11,SSW,202,0.0,3.0,44,0.00,,,0.00,meteohub,2013-08-20 17:19:00,
2013-08-20 12:24:00,84.2,59.9,30.11,South,180,0.0,3.0,44,0.00,,,0.00,meteohub,2013-08-20 17:24:00,
2013-08-20 12:29:00,84.9,61.9,30.11,South,180,2.0,4.0,46,0.00,,,0.00,meteohub,2013-08-20 17:29:00,
2013-08-20 12:34:00,85.3,61.0,30.11,South,180,0.0,4.0,44,0.00,,,0.00,meteohub,2013-08-20 17:34:00,
2013-08-20 12:39:00,85.5,61.0,30.11,NE,45,0.0,4.0,44,0.00,,,0.00,meteohub,2013-08-20 17:39:00,
2013-08-20 12:44:00,85.5,59.7,30.11,SSW,202,3.0,4.0,42,0.00,,,0.00,meteohub,2013-08-20 17:44:00,
2013-08-20 12:49:00,84.9,59.2,30.11,South,180,0.0,4.0,42,0.00,,,0.00,meteohub,2013-08-20 17:49:00,
2013-08-20 12:54:00,85.5,61.0,30.08,East,90,0.0,4.0,44,0.00,,,0.00,meteohub,2013-08-20 17:54:00,
2013-08-20 12:59:00,85.5,60.4,30.08,West,270,3.0,4.0,43,0.00,,,0.00,meteohub,2013-08-20 17:59:00,
2013-08-20 13:04:00,85.6,60.6,30.08,South,180,0.0,4.0,43,0.00,,,0.00,meteohub,2013-08-20 18:04:00,
2013-08-20 13:09:00,85.3,59.5,30.08,SW,225,3.0,4.0,42,0.00,,,0.00,meteohub,2013-08-20 18:09:00,
2013-08-20 13:15:00,85.6,59.9,30.08,South,180,5.0,5.0,42,0.00,,,0.00,meteohub,2013-08-20 18:15:00,
2013-08-20 13:20:00,85.6,59.9,30.08,WSW,248,1.0,5.0,42,0.00,,,0.00,meteohub,2013-08-20 18:20:00,
2013-08-20 13:25:00,85.3,59.0,30.05,South,180,3.0,6.0,41,0.00,,,0.00,meteohub,2013-08-20 18:25:00,
2013-08-20 13:30:00,84.6,59.0,30.05,SSW,202,0.0,6.0,42,0.00,,,0.00,meteohub,2013-08-20 18:30:00,
2013-08-20 13:35:00,84.6,59.0,30.05,SE,135,0.0,6.0,42,0.00,,,0.00,meteohub,2013-08-20 18:35:00,
2013-08-20 13:40:00,84.6,58.3,30.05,South,180,0.0,3.0,41,0.00,,,0.00,meteohub,2013-08-20 18:40:00,
2013-08-20 13:45:00,84.0,58.5,30.05,NNE,22,0.0,3.0,42,0.00,,,0.00,meteohub,2013-08-20 18:45:00,
2013-08-20 13:50:00,83.7,58.8,30.05,SW,225,1.0,3.0,43,0.00,,,0.00,meteohub,2013-08-20 18:50:00,
2013-08-20 13:55:00,83.3,58.5,30.05,SW,225,0.0,3.0,43,0.00,,,0.00,meteohub,2013-08-20 18:55:00,
2013-08-20 14:00:00,83.5,58.6,30.05,South,180,0.0,3.0,43,0.00,,,0.00,meteohub,2013-08-20 19:00:00,
2013-08-20 14:05:00,83.8,59.0,30.05,South,180,0.0,2.0,43,0.00,,,0.00,meteohub,2013-08-20 19:05:00,
2013-08-20 14:10:00,84.4,59.4,30.05,SW,225,1.0,2.0,43,0.00,,,0.00,meteohub,2013-08-20 19:10:00,
2013-08-20 14:15:00,84.0,60.4,30.05,South,180,1.0,4.0,45,0.00,,,0.00,meteohub,2013-08-20 19:15:00,
2013-08-20 14:20:00,84.0,59.7,30.05,South,180,1.0,4.0,44,0.00,,,0.00,meteohub,2013-08-20 19:20:00,
2013-08-20 14:25:00,84.2,59.9,30.02,South,180,1.0,4.0,44,0.00,,,0.00,meteohub,2013-08-20 19:25:00,
2013-08-20 14:30:00,84.0,60.4,30.02,WSW,248,0.0,2.0,45,0.00,,,0.00,meteohub,2013-08-20 19:30:00,
2013-08-20 14:35:00,84.2,59.9,30.02,East,90,0.0,2.0,44,0.00,,,0.00,meteohub,2013-08-20 19:35:00,
2013-08-20 14:40:00,84.4,58.1,30.05,SSE,158,0.0,2.0,41,0.00,,,0.00,meteohub,2013-08-20 19:40:00,
2013-08-20 14:45:00,84.0,58.5,30.05,South,180,0.0,3.0,42,0.00,,,0.00,meteohub,2013-08-20 19:45:00,
2013-08-20 14:50:00,83.8,59.0,30.05,North,0,0.0,3.0,43,0.00,,,0.00,meteohub,2013-08-20 19:50:00,
2013-08-20 14:55:00,84.0,59.7,30.05,SSW,202,0.0,3.0,44,0.00,,,0.00,meteohub,2013-08-20 19:55:00,
2013-08-20 15:01:00,85.6,62.4,30.05,SW,225,3.0,3.0,46,0.00,,,0.00,meteohub,2013-08-20 20:01:00,
2013-08-20 15:06:00,85.8,62.1,30.05,SSW,202,1.0,4.0,45,0.00,,,0.00,meteohub,2013-08-20 20:06:00,
2013-08-20 15:11:00,86.0,60.3,30.05,West,270,3.0,4.0,42,0.00,,,0.00,meteohub,2013-08-20 20:11:00,
2013-08-20 15:16:00,86.0,59.5,30.05,South,180,2.0,4.0,41,0.00,,,0.00,meteohub,2013-08-20 20:16:00,
2013-08-20 15:21:00,85.6,59.2,30.05,South,180,0.0,4.0,41,0.00,,,0.00,meteohub,2013-08-20 20:21:00,
2013-08-20 15:26:00,85.6,59.2,30.05,SSE,158,1.0,4.0,41,0.00,,,0.00,meteohub,2013-08-20 20:26:00,
2013-08-20 15:31:00,85.6,59.9,30.05,SSW,202,3.0,5.0,42,0.00,,,0.00,meteohub,2013-08-20 20:31:00,
2013-08-20 15:36:00,85.3,59.5,30.05,SSW,202,3.0,5.0,42,0.00,,,0.00,meteohub,2013-08-20 20:36:00,
2013-08-20 15:41:00,85.6,59.9,30.05,South,180,0.0,3.0,42,0.00,,,0.00,meteohub,2013-08-20 20:41:00,
2013-08-20 15:46:00,86.0,60.3,30.05,South,180,0.0,3.0,42,0.00,,,0.00,meteohub,2013-08-20 20:46:00,
2013-08-20 15:51:00,85.6,59.9,30.02,East,90,0.0,3.0,42,0.00,,,0.00,meteohub,2013-08-20 20:51:00,
2013-08-20 15:56:00,86.0,60.3,30.02,SSW,202,0.0,2.0,42,0.00,,,0.00,meteohub,2013-08-20 20:56:00,
2013-08-20 16:01:00,86.4,59.9,30.02,SSW,202,0.0,2.0,41,0.00,,,0.00,meteohub,2013-08-20 21:01:00,
2013-08-20 16:06:00,86.4,59.9,30.02,WSW,248,2.0,3.0,41,0.00,,,0.00,meteohub,2013-08-20 21:06:00,
2013-08-20 16:11:00,86.2,59.0,30.02,WSW,248,0.0,3.0,40,0.00,,,0.00,meteohub,2013-08-20 21:11:00,
2013-08-20 16:16:00,86.2,59.7,30.02,SE,135,0.0,3.0,41,0.00,,,0.00,meteohub,2013-08-20 21:16:00,
2013-08-20 16:21:00,86.4,59.2,30.02,South,180,0.0,3.0,40,0.00,,,0.00,meteohub,2013-08-20 21:21:00,
2013-08-20 16:26:00,86.4,59.2,30.02,South,180,1.0,3.0,40,0.00,,,0.00,meteohub,2013-08-20 21:26:00,
2013-08-20 16:31:00,86.0,58.8,30.02,South,180,0.0,3.0,40,0.00,,,0.00,meteohub,2013-08-20 21:31:00,
2013-08-20 16:36:00,85.6,58.5,30.02,SSW,202,0.0,4.0,40,0.00,,,0.00,meteohub,2013-08-20 21:36:00,
2013-08-20 16:41:00,85.8,59.4,30.05,SSW,202,0.0,4.0,41,0.00,,,0.00,meteohub,2013-08-20 21:41:00,
2013-08-20 16:47:00,85.3,58.3,30.05,SW,225,3.0,4.0,40,0.00,,,0.00,meteohub,2013-08-20 21:47:00,
2013-08-20 16:52:00,84.9,58.6,30.02,SSW,202,1.0,4.0,41,0.00,,,0.00,meteohub,2013-08-20 21:52:00,
2013-08-20 16:57:00,84.9,57.9,30.02,South,180,0.0,4.0,40,0.00,,,0.00,meteohub,2013-08-20 21:57:00,
2013-08-20 17:02:00,84.9,59.2,30.02,South,180,0.0,4.0,42,0.00,,,0.00,meteohub,2013-08-20 22:02:00,
2013-08-20 17:07:00,84.7,59.7,30.05,SSW,202,0.0,2.0,43,0.00,,,0.00,meteohub,2013-08-20 22:07:00,
2013-08-20 17:12:00,84.6,59.0,30.05,South,180,0.0,0.0,42,0.00,,,0.00,meteohub,2013-08-20 22:12:00,
2013-08-20 17:17:00,84.7,59.7,30.05,SSW,202,0.0,0.0,43,0.00,,,0.00,meteohub,2013-08-20 22:17:00,
2013-08-20 17:22:00,84.4,60.1,30.05,SSW,202,0.0,0.0,44,0.00,,,0.00,meteohub,2013-08-20 22:22:00,
2013-08-20 17:27:00,84.4,59.4,30.02,South,180,0.0,1.0,43,0.00,,,0.00,meteohub,2013-08-20 22:27:00,
2013-08-20 17:32:00,84.4,58.8,30.02,SSE,158,0.0,1.0,42,0.00,,,0.00,meteohub,2013-08-20 22:32:00,
2013-08-20 17:37:00,84.2,59.4,30.02,SSW,202,0.0,1.0,43,0.00,,,0.00,meteohub,2013-08-20 22:37:00,
2013-08-20 17:42:00,83.8,59.0,30.02,South,180,1.0,2.0,43,0.00,,,0.00,meteohub,2013-08-20 22:42:00,
2013-08-20 17:47:00,83.7,58.8,30.02,South,180,2.0,2.0,43,0.00,,,0.00,meteohub,2013-08-20 22:47:00,
2013-08-20 17:52:00,83.7,58.8,30.02,South,180,3.0,5.0,43,0.00,,,0.00,meteohub,2013-08-20 22:52:00,
2013-08-20 17:57:00,83.5,58.6,30.02,SSW,202,0.0,5.0,43,0.00,,,0.00,meteohub,2013-08-20 22:57:00,
2013-08-20 18:02:00,83.1,58.3,30.02,South,180,0.0,5.0,43,0.00,,,0.00,meteohub,2013-08-20 23:02:00,
2013-08-20 18:07:00,82.9,57.6,30.02,WSW,248,0.0,3.0,42,0.00,,,0.00,meteohub,2013-08-20 23:07:00,
2013-08-20 18:12:00,82.8,57.9,30.02,SSW,202,0.0,3.0,43,0.00,,,0.00,meteohub,2013-08-20 23:12:00,
2013-08-20 18:17:00,82.6,57.7,30.02,South,180,3.0,3.0,43,0.00,,,0.00,meteohub,2013-08-20 23:17:00,
2013-08-20 18:22:00,82.2,57.6,30.02,SW,225,1.0,4.0,43,0.00,,,0.00,meteohub,2013-08-20 23:22:00,
2013-08-20 18:27:00,81.9,57.2,30.02,SW,225,1.0,5.0,43,0.00,,,0.00,meteohub,2013-08-20 23:27:00,
2013-08-20 18:32:00,81.7,57.0,30.02,SSW,202,0.0,5.0,43,0.00,,,0.00,meteohub,2013-08-20 23:32:00,
2013-08-20 18:37:00,81.5,57.6,30.02,South,180,0.0,4.0,44,0.00,,,0.00,meteohub,2013-08-20 23:37:00,
2013-08-20 18:42:00,81.3,57.4,30.02,SSW,202,0.0,4.0,44,0.00,,,0.00,meteohub,2013-08-20 23:42:00,
2013-08-20 18:47:00,80.8,58.1,30.02,SW,225,0.0,1.0,46,0.00,,,0.00,meteohub,2013-08-20 23:47:00,
2013-08-20 18:52:00,80.2,58.1,30.02,SW,225,0.0,1.0,47,0.00,,,0.00,meteohub,2013-08-20 23:52:00,
2013-08-20 18:57:00,79.9,57.9,30.02,West,270,0.0,0.0,47,0.00,,,0.00,meteohub,2013-08-20 23:57:00,
2013-08-20 19:02:00,79.3,57.9,30.02,WSW,248,0.0,0.0,48,0.00,,,0.00,meteohub,2013-08-21 00:02:00,
2013-08-20 19:07:00,79.0,57.6,30.02,South,180,0.0,0.0,48,0.00,,,0.00,meteohub,2013-08-21 00:07:00,
2013-08-20 19:12:00,78.6,58.5,30.02,South,180,0.0,0.0,50,0.00,,,0.00,meteohub,2013-08-21 00:12:00,
2013-08-20 19:17:00,78.3,58.1,30.02,South,180,0.0,0.0,50,0.00,,,0.00,meteohub,2013-08-21 00:17:00,
2013-08-20 19:22:00,77.9,58.3,30.02,South,180,0.0,0.0,51,0.00,,,0.00,meteohub,2013-08-21 00:22:00,
2013-08-20 19:27:00,77.5,57.9,30.02,South,180,0.0,0.0,51,0.00,,,0.00,meteohub,2013-08-21 00:27:00,
2013-08-20 19:32:00,77.2,57.7,30.02,South,180,0.0,0.0,51,0.00,,,0.00,meteohub,2013-08-21 00:32:00,
2013-08-20 19:37:00,77.0,57.6,30.02,South,180,0.0,0.0,51,0.00,,,0.00,meteohub,2013-08-21 00:37:00,
2013-08-20 19:42:00,76.6,57.2,30.02,South,180,0.0,0.0,51,0.00,,,0.00,meteohub,2013-08-21 00:42:00,
2013-08-20 19:47:00,76.5,58.1,30.02,South,180,0.0,0.0,53,0.00,,,0.00,meteohub,2013-08-21 00:47:00,
2013-08-20 19:52:00,76.3,57.9,30.02,West,270,0.0,0.0,53,0.00,,,0.00,meteohub,2013-08-21 00:52:00,
2013-08-20 19:57:00,76.1,57.7,30.02,SSW,202,0.0,0.0,53,0.00,,,0.00,meteohub,2013-08-21 00:57:00,
2013-08-20 20:02:00,75.7,58.5,30.02,SSW,202,0.0,0.0,55,0.00,,,0.00,meteohub,2013-08-21 01:02:00,
2013-08-20 20:07:00,75.6,58.3,30.05,SSW,202,0.0,0.0,55,0.00,,,0.00,meteohub,2013-08-21 01:07:00,
2013-08-20 20:12:00,75.4,58.1,30.05,SSW,202,0.0,0.0,55,0.00,,,0.00,meteohub,2013-08-21 01:12:00,
2013-08-20 20:17:00,75.2,57.9,30.05,South,180,0.0,0.0,55,0.00,,,0.00,meteohub,2013-08-21 01:17:00,
2013-08-20 20:22:00,75.0,58.8,30.05,SE,135,0.0,0.0,57,0.00,,,0.00,meteohub,2013-08-21 01:22:00,
2013-08-20 20:25:00,74.8,59.0,30.05,East,90,0.0,0.0,58,0.00,,,0.00,meteohub,2013-08-21 01:25:00,
2013-08-20 20:30:00,74.7,58.8,30.05,SSW,202,0.0,0.0,58,0.00,,,0.00,meteohub,2013-08-21 01:30:00,
2013-08-20 20:35:00,74.5,58.8,30.05,SSW,202,0.0,0.0,58,0.00,,,0.00,meteohub,2013-08-21 01:35:00,
2013-08-20 20:40:00,74.3,59.0,30.02,SSW,202,0.0,0.0,59,0.00,,,0.00,meteohub,2013-08-21 01:40:00,
2013-08-20 20:45:00,73.9,59.2,30.02,SSW,202,0.0,0.0,60,0.00,,,0.00,meteohub,2013-08-21 01:45:00,
2013-08-20 20:50:00,73.8,59.5,30.02,SSW,202,0.0,0.0,61,0.00,,,0.00,meteohub,2013-08-21 01:50:00,
2013-08-20 20:55:00,73.6,59.4,30.05,ENE,68,0.0,0.0,61,0.00,,,0.00,meteohub,2013-08-21 01:55:00,
2013-08-20 21:00:00,73.4,59.2,30.05,ENE,68,0.0,0.0,61,0.00,,,0.00,meteohub,2013-08-21 02:00:00,
2013-08-20 21:05:00,73.2,59.9,30.05,ENE,68,0.0,0.0,63,0.00,,,0.00,meteohub,2013-08-21 02:05:00,
2013-08-20 21:10:00,73.0,59.7,30.02,South,180,0.0,0.0,63,0.00,,,0.00,meteohub,2013-08-21 02:10:00,
2013-08-20 21:15:00,72.9,59.5,30.02,South,180,0.0,0.0,63,0.00,,,0.00,meteohub,2013-08-21 02:15:00,
2013-08-20 21:21:00,72.9,59.9,30.02,South,180,0.0,0.0,64,0.00,,,0.00,meteohub,2013-08-21 02:21:00,
2013-08-20 21:26:00,72.7,59.7,30.02,South,180,0.0,0.0,64,0.00,,,0.00,meteohub,2013-08-21 02:26:00,
2013-08-20 21:31:00,72.5,60.1,30.02,South,180,0.0,0.0,65,0.00,,,0.00,meteohub,2013-08-21 02:31:00,
2013-08-20 21:36:00,72.3,59.9,30.05,South,180,0.0,0.0,65,0.00,,,0.00,meteohub,2013-08-21 02:36:00,
2013-08-20 21:41:00,72.3,60.3,30.05,South,180,0.0,0.0,66,0.00,,,0.00,meteohub,2013-08-21 02:41:00,
2013-08-20 21:46:00,72.1,60.6,30.05,South,180,0.0,0.0,67,0.00,,,0.00,meteohub,2013-08-21 02:46:00,
2013-08-20 21:51:00,72.0,60.4,30.05,South,180,0.0,0.0,67,0.00,,,0.00,meteohub,2013-08-21 02:51:00,
2013-08-20 21:56:00,72.0,60.8,30.05,South,180,0.0,0.0,68,0.00,,,0.00,meteohub,2013-08-21 02:56:00,
2013-08-20 22:01:00,71.8,60.6,30.05,South,180,0.0,0.0,68,0.00,,,0.00,meteohub,2013-08-21 03:01:00,
2013-08-20 22:06:00,71.6,60.4,30.05,South,180,0.0,0.0,68,0.00,,,0.00,meteohub,2013-08-21 03:06:00,
2013-08-20 22:11:00,71.4,60.8,30.05,South,180,0.0,0.0,69,0.00,,,0.00,meteohub,2013-08-21 03:11:00,
2013-08-20 22:16:00,71.2,60.6,30.05,South,180,0.0,0.0,69,0.00,,,0.00,meteohub,2013-08-21 03:16:00,
2013-08-20 22:21:00,71.1,60.4,30.02,South,180,0.0,0.0,69,0.00,,,0.00,meteohub,2013-08-21 03:21:00,
2013-08-20 22:26:00,70.9,60.6,30.02,South,180,0.0,0.0,70,0.00,,,0.00,meteohub,2013-08-21 03:26:00,
2013-08-20 22:31:00,70.9,60.6,30.02,South,180,0.0,0.0,70,0.00,,,0.00,meteohub,2013-08-21 03:31:00,
2013-08-20 22:36:00,70.7,60.8,30.02,South,180,0.0,0.0,71,0.00,,,0.00,meteohub,2013-08-21 03:36:00,
2013-08-20 22:41:00,70.5,60.6,30.05,South,180,0.0,0.0,71,0.00,,,0.00,meteohub,2013-08-21 03:41:00,
2013-08-20 22:47:00,70.3,60.4,30.05,South,180,0.0,0.0,71,0.00,,,0.00,meteohub,2013-08-21 03:47:00,
2013-08-20 22:52:00,70.5,60.6,30.05,South,180,0.0,0.0,71,0.00,,,0.00,meteohub,2013-08-21 03:52:00,
2013-08-20 22:57:00,70.3,60.4,30.05,South,180,0.0,0.0,71,0.00,,,0.00,meteohub,2013-08-21 03:57:00,
2013-08-20 23:01:00,70.2,60.3,30.05,South,180,0.0,0.0,71,0.00,,,0.00,meteohub,2013-08-21 04:01:00,
2013-08-20 23:02:00,70.2,60.3,30.05,East,90,0.0,0.0,71,0.00,,,0.00,meteohub,2013-08-21 04:02:00,
2013-08-20 23:05:00,70.0,60.1,30.05,East,90,0.0,0.0,71,0.00,,,0.00,meteohub,2013-08-21 04:05:00,
2013-08-20 23:09:00,70.0,60.6,30.05,East,90,0.0,0.0,72,0.00,,,0.00,meteohub,2013-08-21 04:09:00,
2013-08-20 23:14:00,69.8,60.8,30.05,East,90,0.0,0.0,73,0.00,,,0.00,meteohub,2013-08-21 04:14:00,
2013-08-20 23:19:00,69.6,60.6,30.05,East,90,0.0,0.0,73,0.00,,,0.00,meteohub,2013-08-21 04:19:00,
2013-08-20 23:24:00,69.4,61.2,30.05,East,90,0.0,0.0,75,0.00,,,0.00,meteohub,2013-08-21 04:24:00,
2013-08-20 23:29:00,69.3,61.0,30.05,East,90,0.0,0.0,75,0.00,,,0.00,meteohub,2013-08-21 04:29:00,
2013-08-20 23:34:00,69.3,61.3,30.05,East,90,0.0,0.0,76,0.00,,,0.00,meteohub,2013-08-21 04:34:00,
2013-08-20 23:39:00,69.1,61.2,30.05,East,90,0.0,0.0,76,0.00,,,0.00,meteohub,2013-08-21 04:39:00,
2013-08-20 23:44:00,68.9,61.3,30.05,East,90,0.0,0.0,77,0.00,,,0.00,meteohub,2013-08-21 04:44:00,
2013-08-20 23:49:00,68.9,61.3,30.05,East,90,0.0,0.0,77,0.00,,,0.00,meteohub,2013-08-21 04:49:00,
2013-08-20 23:54:00,68.9,61.7,30.05,East,90,0.0,0.0,78,0.00,,,0.00,meteohub,2013-08-21 04:54:00,
2013-08-20 23:59:00,68.7,61.5,30.05,East,90,0.0,0.0,78,0.00,,,0.00,meteohub,2013-08-21 04:59:00,